Location: Augirein
(42.9320°N, 0.9181°E)
Time: 20:37:45
(UTC+00:00)

DELTA 2 R/B (1) - Pass Details

Date: 20 June 2021
Orbit: 789 x 804 km, 39.6° (Epoch: 23 July)

Event Time Altitude Azimuth Distance (km) Brightness Sun altitude
Exits shadow 01:57:46 24° 249° (WSW) 1,592 4.7 -18.1°
Maximum altitude 02:01:05 62° 176° (S) 885 3.5 -17.8°
Drops below altitude 10° 02:06:32 10° 97° (E) 2,349 6.3 -17.3°
Sets 02:09:03 0° 94° (E) 3,280 7.2 -17.1°
